Hourly Weather Roundup
Issued by NWS Central Illinois

Home | Current Version | Previous Version | Text Only | Print | Product List | Glossary On
Versions: 1 2 3 4 5 6 7 8 9 10 11 12 13 14 15 16 17 18 19 20 21 22 23 24 25 26 27 28 29 30 31 32 33 34 35 36 37 38 39 40 41 42 43 44 45 46 47 48 49 50
000
NZUS43 KILX 270010
HWRILX

Area Weather Roundup
National Weather Service Lincoln IL
700 PM CDT MON JUN 26 2017

NOTE:  "FAIR" indicates few or no clouds below 12,000 feet, with
       no sigificant weather and/or obstructions to visibility.


CITY           SKY/WX    TMP DP  RH WIND       PRES   REMARKS
Bloomington    CLOUDY    61  54  77 SW6       30.10S
6HR MIN TEMP:  56; 6HR MAX TEMP:  72; 6HR PCP:  0.14;

Champaign      PTSUNNY   63  48  58 NW13G22   30.10S
6HR MIN TEMP:  62; 6HR MAX TEMP:  73; 6HR PCP: TRACE;

Danville       CLOUDY    61  56  83 W5        30.07S
6HR MIN TEMP:  59; 6HR MAX TEMP:  72; 6HR PCP:  0.02;

Decatur        PTSUNNY   64  50  60 N7        30.11S
6HR MIN TEMP:  63; 6HR MAX TEMP:  72; 6HR PCP: TRACE;

Effingham      CLOUDY    71  50  48 W5        30.12S
6HR MIN TEMP:  69; 6HR MAX TEMP:  78;

Flora          CLOUDY    69  49  49 CALM      30.11S
6HR MIN TEMP:  69; 6HR MAX TEMP:  79;

Galesburg      MOSUNNY   67  57  69 NW3       30.08F
6HR MIN TEMP:  58; 6HR MAX TEMP:  72; 6HR PCP:  0.13;

Jacksonville   SUNNY     70  49  45 W9        30.09F
6HR MIN TEMP:  64; 6HR MAX TEMP:  72;

Lacon          MOSUNNY   68  50  51 W8        30.05F
6HR MIN TEMP:  63; 6HR MAX TEMP:  72;

Lawrenceville  PTSUNNY   67  49  52 NW6       30.11F
6HR MIN TEMP:  67; 6HR MAX TEMP:  79; 6HR PCP: TRACE;

Litchfield     MOSUNNY   68  53  58 CALM      30.11S
6HR MIN TEMP:  65; 6HR MAX TEMP:  73;

$$


CITY           SKY/WX    TMP DP  RH WIND       PRES   REMARKS
Lincoln        LGT RAIN  60  56  88 NW5       30.12R
6HR MIN TEMP:  60; 6HR MAX TEMP:  75;

Macomb         PTSUNNY   65  53  66 NE5       30.10F
6HR MIN TEMP:  64; 6HR MAX TEMP:  72;

Mattoon        CLOUDY    67  51  56 W7        30.09F
6HR MIN TEMP:  64; 6HR MAX TEMP:  72; 6HR PCP: TRACE;

Mt Carmel AP   PTSUNNY   67  52  58 CALM      30.11R
6HR MIN TEMP:  67; 6HR MAX TEMP:  77;

Olney-Noble AP CLOUDY    67  51  56 CALM      30.11S
Paris AP       MOSUNNY   65  48  54 NW9       30.10R
6HR MIN TEMP:  65; 6HR MAX TEMP:  72;

Peoria         CLOUDY    66  55  67 CALM      30.09S
6HR MIN TEMP:  58; 6HR MAX TEMP:  72; 6HR PCP:  0.01;

Pontiac        MOSUNNY   67  52  58 W12       30.07F
6HR MIN TEMP:  63; 6HR MAX TEMP:  75; 6HR PCP:  0.03;

Rantoul        LGT RAIN  62  54  74 W14       30.09S
6HR MIN TEMP:  59; 6HR MAX TEMP:  75; 6HR PCP:  0.13;

Robinson       CLOUDY    65  52  62 CALM      30.11S
6HR MIN TEMP:  65; 6HR MAX TEMP:  76;

Springfield    SUNNY     73  50  44 W13       30.09F
6HR MIN TEMP:  62; 6HR MAX TEMP:  75; 6HR PCP: TRACE;

Taylorville    SUNNY     70  49  47 W6        30.10S
6HR MIN TEMP:  64; 6HR MAX TEMP:  71;

$$

...REGIONAL REPORTS...


CITY           SKY/WX    TMP DP  RH WIND       PRES   REMARKS
Chicago O`Hare PTSUNNY   67  43  41 NW21G26   30.04R
Kankakee       CLOUDY    66  54  64 W16       30.05S
Moline         SUNNY     72  41  32 N9        30.06S
Mount Sterling MOSUNNY   70  50  48 SW7       30.08F
Mount Vernon   PTSUNNY   68  54  60 NE3       30.10F
Pittsfield     SUNNY     71  54  55 SW6       30.11S
Quincy         SUNNY     71  50  47 W7        30.09S
Rockford       MOSUNNY   67  42  40 N18G25    30.08R
$$


CITY           SKY/WX    TMP DP  RH WIND       PRES   REMARKS
Burlington     PTSUNNY   66  56  70 NW3       30.08F
Cedar Rapids   MOSUNNY   69  43  38 N14       30.08S
Des Moines     MOSUNNY   73  43  33 N12       30.10S
Kirksville     SUNNY     71  54  54 SW7       30.10S
Ottumwa        SUNNY     72  52  49 W8        30.09R
St Louis       MOSUNNY   72  52  49 W10       30.10F
$$


CITY           SKY/WX    TMP DP  RH WIND       PRES   REMARKS
Terre Haute    CLOUDY    68  50  52 W9        30.09F
Evansville     CLOUDY    70  50  49 N10       30.11R
Indianapolis   PTSUNNY   69  47  45 W21       30.06S
Lafayette      CLOUDY    58  55  90 W5        30.06F
Madison        MOSUNNY   64  45  49 NW10      30.06S
Milwaukee      MOSUNNY   65  44  46 NW13      30.03S
$$





USA.gov is the U.S. government's official web portal to all federal, state and local government web resources and services.